﻿_id,日時,10分間移動積算雨量(mm),1時間移動積算雨量(mm),日雨量(mm),累計雨量(mm)
1,2023-05-08T00:00:00,1.5,10.5,84,86.5
2,2023-05-08T00:01:00,1.5,10.5,0,86.5
3,2023-05-08T00:02:00,2,11,0.5,87
4,2023-05-08T00:03:00,1.5,11,0.5,87
5,2023-05-08T00:04:00,1.5,11,0.5,87
6,2023-05-08T00:05:00,1.5,11.5,1,87.5
7,2023-05-08T00:06:00,1.5,11,1,87.5
8,2023-05-08T00:07:00,1.5,11,1,87.5
9,2023-05-08T00:08:00,1.5,10.5,1,87.5
10,2023-05-08T00:09:00,2,11,1.5,88
11,2023-05-08T00:10:00,1.5,11,1.5,88
12,2023-05-08T00:11:00,1.5,10.5,1.5,88
13,2023-05-08T00:12:00,1,10.5,1.5,88
14,2023-05-08T00:13:00,1.5,11,2,88.5
15,2023-05-08T00:14:00,1.5,11,2,88.5
16,2023-05-08T00:15:00,1,10.5,2,88.5
17,2023-05-08T00:16:00,1.5,11,2.5,89
18,2023-05-08T00:17:00,1.5,10.5,2.5,89
19,2023-05-08T00:18:00,1.5,10.5,2.5,89
20,2023-05-08T00:19:00,1,10.5,2.5,89
21,2023-05-08T00:20:00,1,10,2.5,89
22,2023-05-08T00:21:00,1.5,10.5,3,89.5
23,2023-05-08T00:22:00,1.5,10,3,89.5
24,2023-05-08T00:23:00,1,10,3,89.5
25,2023-05-08T00:24:00,1,10,3,89.5
26,2023-05-08T00:25:00,1,9.5,3,89.5
27,2023-05-08T00:26:00,0.5,9.5,3,89.5
28,2023-05-08T00:27:00,0.5,9,3,89.5
29,2023-05-08T00:28:00,0.5,9,3,89.5
30,2023-05-08T00:29:00,1,9,3.5,90
31,2023-05-08T00:30:00,1,9,3.5,90
32,2023-05-08T00:31:00,0.5,8.5,3.5,90
33,2023-05-08T00:32:00,0.5,8.5,3.5,90
34,2023-05-08T00:33:00,0.5,8,3.5,90
35,2023-05-08T00:34:00,0.5,8,3.5,90
36,2023-05-08T00:35:00,0.5,7.5,3.5,90
37,2023-05-08T00:36:00,0.5,7.5,3.5,90
38,2023-05-08T00:37:00,0.5,7.5,3.5,90
39,2023-05-08T00:38:00,1,7.5,4,90.5
40,2023-05-08T00:39:00,0.5,7.5,4,90.5
41,2023-05-08T00:40:00,0.5,7.5,4,90.5
42,2023-05-08T00:41:00,0.5,7.5,4,90.5
43,2023-05-08T00:42:00,0.5,7,4,90.5
44,2023-05-08T00:43:00,0.5,7,4,90.5
45,2023-05-08T00:44:00,0.5,7,4,90.5
46,2023-05-08T00:45:00,0.5,6.5,4,90.5
47,2023-05-08T00:46:00,0.5,6.5,4,90.5
48,2023-05-08T00:47:00,0.5,6,4,90.5
49,2023-05-08T00:48:00,0,6,4,90.5
50,2023-05-08T00:49:00,0,6,4,90.5
51,2023-05-08T00:50:00,0.5,6,4.5,91
52,2023-05-08T00:51:00,0.5,6,4.5,91
53,2023-05-08T00:52:00,0.5,6,4.5,91
54,2023-05-08T00:53:00,0.5,5.5,4.5,91
55,2023-05-08T00:54:00,0.5,5.5,4.5,91
56,2023-05-08T00:55:00,0.5,5,4.5,91
57,2023-05-08T00:56:00,0.5,5,4.5,91
58,2023-05-08T00:57:00,0.5,5,4.5,91
59,2023-05-08T00:58:00,0.5,5,4.5,91
60,2023-05-08T00:59:00,0.5,5,4.5,91
61,2023-05-08T01:00:00,0,4.5,4.5,91
62,2023-05-08T01:01:00,0.5,5,5,91.5
63,2023-05-08T01:02:00,0.5,4.5,5,91.5
64,2023-05-08T01:03:00,0.5,4.5,5,91.5
65,2023-05-08T01:04:00,0.5,4.5,5,91.5
66,2023-05-08T01:05:00,0.5,4,5,91.5
67,2023-05-08T01:06:00,0.5,4,5,91.5
68,2023-05-08T01:07:00,0.5,4,5,91.5
69,2023-05-08T01:08:00,0.5,4,5,91.5
70,2023-05-08T01:09:00,0.5,3.5,5,91.5
71,2023-05-08T01:10:00,0.5,3.5,5,91.5
72,2023-05-08T01:11:00,0,3.5,5,91.5
73,2023-05-08T01:12:00,0,3.5,5,91.5
74,2023-05-08T01:13:00,0.5,3.5,5.5,92
75,2023-05-08T01:14:00,0.5,3.5,5.5,92
76,2023-05-08T01:15:00,0.5,3.5,5.5,92
77,2023-05-08T01:16:00,0.5,3,5.5,92
78,2023-05-08T01:17:00,0.5,3,5.5,92
79,2023-05-08T01:18:00,0.5,3,5.5,92
80,2023-05-08T01:19:00,0.5,3,5.5,92
81,2023-05-08T01:20:00,0.5,3,5.5,92
82,2023-05-08T01:21:00,0.5,2.5,5.5,92
83,2023-05-08T01:22:00,0.5,2.5,5.5,92
84,2023-05-08T01:23:00,0,2.5,5.5,92
85,2023-05-08T01:24:00,0,2.5,5.5,92
86,2023-05-08T01:25:00,0,2.5,5.5,92
87,2023-05-08T01:26:00,0,2.5,5.5,92
88,2023-05-08T01:27:00,0,2.5,5.5,92
89,2023-05-08T01:28:00,0,2.5,5.5,92
90,2023-05-08T01:29:00,0,2,5.5,92
91,2023-05-08T01:30:00,0,2,5.5,92
92,2023-05-08T01:31:00,0.5,2.5,6,92.5
93,2023-05-08T01:32:00,0.5,2.5,6,92.5
94,2023-05-08T01:33:00,0.5,2.5,6,92.5
95,2023-05-08T01:34:00,0.5,2.5,6,92.5
96,2023-05-08T01:35:00,0.5,2.5,6,92.5
97,2023-05-08T01:36:00,0.5,2.5,6,92.5
98,2023-05-08T01:37:00,0.5,2.5,6,92.5
99,2023-05-08T01:38:00,1,2.5,6.5,93
100,2023-05-08T01:39:00,1,2.5,6.5,93
101,2023-05-08T01:40:00,1,2.5,6.5,93
102,2023-05-08T01:41:00,0.5,2.5,6.5,93
103,2023-05-08T01:42:00,0.5,2.5,6.5,93
104,2023-05-08T01:43:00,0.5,2.5,6.5,93
105,2023-05-08T01:44:00,0.5,2.5,6.5,93
106,2023-05-08T01:45:00,1,3,7,93.5
107,2023-05-08T01:46:00,1,3,7,93.5
108,2023-05-08T01:47:00,1,3,7,93.5
109,2023-05-08T01:48:00,0.5,3,7,93.5
110,2023-05-08T01:49:00,0.5,3,7,93.5
111,2023-05-08T01:50:00,0.5,2.5,7,93.5
112,2023-05-08T01:51:00,0.5,2.5,7,93.5
113,2023-05-08T01:52:00,0.5,2.5,7,93.5
114,2023-05-08T01:53:00,0.5,2.5,7,93.5
115,2023-05-08T01:54:00,0.5,2.5,7,93.5
116,2023-05-08T01:55:00,0,2.5,7,93.5
117,2023-05-08T01:56:00,0,2.5,7,93.5
118,2023-05-08T01:57:00,0,2.5,7,93.5
119,2023-05-08T01:58:00,0,2.5,7,93.5
120,2023-05-08T01:59:00,0,2.5,7,93.5
121,2023-05-08T02:00:00,0,2.5,7,93.5
122,2023-05-08T02:01:00,0,2,7,93.5
123,2023-05-08T02:02:00,0,2,7,93.5
124,2023-05-08T02:03:00,0,2,7,93.5
125,2023-05-08T02:04:00,0,2,7,93.5
126,2023-05-08T02:05:00,0,2,7,93.5
127,2023-05-08T02:06:00,0,2,7,93.5
128,2023-05-08T02:07:00,0,2,7,93.5
129,2023-05-08T02:08:00,0,2,7,93.5
130,2023-05-08T02:09:00,0,2,7,93.5
131,2023-05-08T02:10:00,0,2,7,93.5
132,2023-05-08T02:11:00,,,,
133,2023-05-08T02:12:00,0,2,7,93.5
134,2023-05-08T02:13:00,0,1.5,7,93.5
135,2023-05-08T02:14:00,0,1.5,7,93.5
136,2023-05-08T02:15:00,0,1.5,7,93.5
137,2023-05-08T02:16:00,0,1.5,7,93.5
138,2023-05-08T02:17:00,0,1.5,7,93.5
139,2023-05-08T02:18:00,0,1.5,7,93.5
140,2023-05-08T02:19:00,0,1.5,7,93.5
141,2023-05-08T02:20:00,0,1.5,7,93.5
142,2023-05-08T02:21:00,0,1.5,7,93.5
143,2023-05-08T02:22:00,0,1.5,7,93.5
144,2023-05-08T02:23:00,0,1.5,7,93.5
145,2023-05-08T02:24:00,0,1.5,7,93.5
146,2023-05-08T02:25:00,0,1.5,7,93.5
147,2023-05-08T02:26:00,0,1.5,7,93.5
148,2023-05-08T02:27:00,0,1.5,7,93.5
149,2023-05-08T02:28:00,0,1.5,7,93.5
150,2023-05-08T02:29:00,0,1.5,7,93.5
151,2023-05-08T02:30:00,0,1.5,7,93.5
152,2023-05-08T02:31:00,0,1,7,93.5
153,2023-05-08T02:32:00,0,1,7,93.5
154,2023-05-08T02:33:00,0,1,7,93.5
155,2023-05-08T02:34:00,0,1,7,93.5
156,2023-05-08T02:35:00,0,1,7,93.5
157,2023-05-08T02:36:00,0,1,7,93.5
158,2023-05-08T02:37:00,0,1,7,93.5
159,2023-05-08T02:38:00,0,0.5,7,93.5
160,2023-05-08T02:39:00,0,0.5,7,93.5
161,2023-05-08T02:40:00,0,0.5,7,93.5
162,2023-05-08T02:41:00,0,0.5,7,93.5
163,2023-05-08T02:42:00,0,0.5,7,93.5
164,2023-05-08T02:43:00,0,0.5,7,93.5
165,2023-05-08T02:44:00,0,0.5,7,93.5
166,2023-05-08T02:45:00,0,0,7,93.5
167,2023-05-08T02:46:00,0,0,7,93.5
168,2023-05-08T02:47:00,0.5,0.5,7.5,94
169,2023-05-08T02:48:00,0.5,0.5,7.5,94
170,2023-05-08T02:49:00,0.5,0.5,7.5,94
171,2023-05-08T02:50:00,0.5,0.5,7.5,94
172,2023-05-08T02:51:00,0.5,0.5,7.5,94
173,2023-05-08T02:52:00,0.5,0.5,7.5,94
174,2023-05-08T02:53:00,0.5,0.5,7.5,94
175,2023-05-08T02:54:00,0.5,0.5,7.5,94
176,2023-05-08T02:55:00,0.5,0.5,7.5,94
177,2023-05-08T02:56:00,0.5,0.5,7.5,94
178,2023-05-08T02:57:00,0,0.5,7.5,94
179,2023-05-08T02:58:00,0,0.5,7.5,94
180,2023-05-08T02:59:00,0,0.5,7.5,94
181,2023-05-08T03:00:00,0,0.5,7.5,94
182,2023-05-08T03:01:00,0,0.5,7.5,94
183,2023-05-08T03:02:00,0,0.5,7.5,94
184,2023-05-08T03:03:00,0,0.5,7.5,94
185,2023-05-08T03:04:00,0,0.5,7.5,94
186,2023-05-08T03:05:00,0,0.5,7.5,94
187,2023-05-08T03:06:00,0,0.5,7.5,94
188,2023-05-08T03:07:00,0,0.5,7.5,94
189,2023-05-08T03:08:00,0,0.5,7.5,94
190,2023-05-08T03:09:00,0,0.5,7.5,94
191,2023-05-08T03:10:00,0,0.5,7.5,94
192,2023-05-08T03:11:00,0,0.5,7.5,94
193,2023-05-08T03:12:00,0,0.5,7.5,94
194,2023-05-08T03:13:00,0,0.5,7.5,94
195,2023-05-08T03:14:00,0,0.5,7.5,94
196,2023-05-08T03:15:00,0,0.5,7.5,94
197,2023-05-08T03:16:00,0,0.5,7.5,94
198,2023-05-08T03:17:00,0,0.5,7.5,94
199,2023-05-08T03:18:00,0,0.5,7.5,94
200,2023-05-08T03:19:00,0,0.5,7.5,94
201,2023-05-08T03:20:00,0,0.5,7.5,94
202,2023-05-08T03:21:00,0,0.5,7.5,94
203,2023-05-08T03:22:00,0,0.5,7.5,94
204,2023-05-08T03:23:00,0,0.5,7.5,94
205,2023-05-08T03:24:00,0,0.5,7.5,94
206,2023-05-08T03:25:00,0,0.5,7.5,94
207,2023-05-08T03:26:00,0,0.5,7.5,94
208,2023-05-08T03:27:00,0,0.5,7.5,94
209,2023-05-08T03:28:00,0,0.5,7.5,94
210,2023-05-08T03:29:00,0,0.5,7.5,94
211,2023-05-08T03:30:00,0,0.5,7.5,94
212,2023-05-08T03:31:00,0,0.5,7.5,94
213,2023-05-08T03:32:00,0,0.5,7.5,94
214,2023-05-08T03:33:00,0,0.5,7.5,94
215,2023-05-08T03:34:00,0,0.5,7.5,94
216,2023-05-08T03:35:00,0,0.5,7.5,94
217,2023-05-08T03:36:00,0,0.5,7.5,94
218,2023-05-08T03:37:00,0,0.5,7.5,94
219,2023-05-08T03:38:00,0,0.5,7.5,94
220,2023-05-08T03:39:00,0,0.5,7.5,94
221,2023-05-08T03:40:00,0,0.5,7.5,94
222,2023-05-08T03:41:00,0,0.5,7.5,94
223,2023-05-08T03:42:00,0,0.5,7.5,94
224,2023-05-08T03:43:00,0,0.5,7.5,94
225,2023-05-08T03:44:00,0,0.5,7.5,94
226,2023-05-08T03:45:00,0,0.5,7.5,94
227,2023-05-08T03:46:00,0,0.5,7.5,94
228,2023-05-08T03:47:00,0,0,7.5,94
229,2023-05-08T03:48:00,0,0,7.5,94
230,2023-05-08T03:49:00,0,0,7.5,94
231,2023-05-08T03:50:00,0,0,7.5,94
232,2023-05-08T03:51:00,0,0,7.5,94
233,2023-05-08T03:52:00,0,0,7.5,94
234,2023-05-08T03:53:00,0,0,7.5,94
235,2023-05-08T03:54:00,0,0,7.5,94
236,2023-05-08T03:55:00,0,0,7.5,94
237,2023-05-08T03:56:00,0,0,7.5,94
238,2023-05-08T03:57:00,0,0,7.5,94
239,2023-05-08T03:58:00,0,0,7.5,94
240,2023-05-08T03:59:00,0,0,7.5,94
241,2023-05-08T04:00:00,0,0,7.5,94
242,2023-05-08T04:01:00,0,0,7.5,94
243,2023-05-08T04:02:00,0,0,7.5,94
244,2023-05-08T04:03:00,0,0,7.5,94
245,2023-05-08T04:04:00,0,0,7.5,94
246,2023-05-08T04:05:00,0,0,7.5,94
247,2023-05-08T04:06:00,0,0,7.5,94
248,2023-05-08T04:07:00,0,0,7.5,94
249,2023-05-08T04:08:00,0,0,7.5,94
250,2023-05-08T04:09:00,0,0,7.5,94
251,2023-05-08T04:10:00,0,0,7.5,94
252,2023-05-08T04:11:00,0,0,7.5,94
253,2023-05-08T04:12:00,0,0,7.5,94
254,2023-05-08T04:13:00,0,0,7.5,94
255,2023-05-08T04:14:00,0,0,7.5,94
256,2023-05-08T04:15:00,0,0,7.5,94
257,2023-05-08T04:16:00,0,0,7.5,94
258,2023-05-08T04:17:00,0,0,7.5,94
259,2023-05-08T04:18:00,0,0,7.5,94
260,2023-05-08T04:19:00,0,0,7.5,94
261,2023-05-08T04:20:00,0,0,7.5,94
262,2023-05-08T04:21:00,0,0,7.5,94
263,2023-05-08T04:22:00,0,0,7.5,94
264,2023-05-08T04:23:00,0,0,7.5,94
265,2023-05-08T04:24:00,0,0,7.5,94
266,2023-05-08T04:25:00,0,0,7.5,94
267,2023-05-08T04:26:00,0,0,7.5,94
268,2023-05-08T04:27:00,0,0,7.5,94
269,2023-05-08T04:28:00,0,0,7.5,94
270,2023-05-08T04:29:00,0,0,7.5,94
271,2023-05-08T04:30:00,0,0,7.5,94
272,2023-05-08T04:31:00,0,0,7.5,94
273,2023-05-08T04:32:00,0,0,7.5,94
274,2023-05-08T04:33:00,0,0,7.5,94
275,2023-05-08T04:34:00,0,0,7.5,94
276,2023-05-08T04:35:00,0,0,7.5,94
277,2023-05-08T04:36:00,0,0,7.5,94
278,2023-05-08T04:37:00,0,0,7.5,94
279,2023-05-08T04:38:00,0,0,7.5,94
280,2023-05-08T04:39:00,0,0,7.5,94
281,2023-05-08T04:40:00,0,0,7.5,94
282,2023-05-08T04:41:00,0,0,7.5,94
283,2023-05-08T04:42:00,0,0,7.5,94
284,2023-05-08T04:43:00,0,0,7.5,94
285,2023-05-08T04:44:00,0,0,7.5,94
286,2023-05-08T04:45:00,0,0,7.5,94
287,2023-05-08T04:46:00,0,0,7.5,94
288,2023-05-08T04:47:00,0,0,7.5,94
289,2023-05-08T04:48:00,0,0,7.5,94
290,2023-05-08T04:49:00,0,0,7.5,94
291,2023-05-08T04:50:00,0,0,7.5,94
292,2023-05-08T04:51:00,0,0,7.5,94
293,2023-05-08T04:52:00,0,0,7.5,94
294,2023-05-08T04:53:00,0,0,7.5,94
295,2023-05-08T04:54:00,0,0,7.5,94
296,2023-05-08T04:55:00,0,0,7.5,94
297,2023-05-08T04:56:00,0,0,7.5,94
298,2023-05-08T04:57:00,0,0,7.5,94
299,2023-05-08T04:58:00,0,0,7.5,94
300,2023-05-08T04:59:00,0,0,7.5,94
301,2023-05-08T05:00:00,0,0,7.5,94
302,2023-05-08T05:01:00,0,0,7.5,94
303,2023-05-08T05:02:00,0,0,7.5,94
304,2023-05-08T05:03:00,0,0,7.5,94
305,2023-05-08T05:04:00,0,0,7.5,94
306,2023-05-08T05:05:00,0,0,7.5,94
307,2023-05-08T05:06:00,0,0,7.5,94
308,2023-05-08T05:07:00,0,0,7.5,94
309,2023-05-08T05:08:00,0,0,7.5,94
310,2023-05-08T05:09:00,0,0,7.5,94
311,2023-05-08T05:10:00,0,0,7.5,94
312,2023-05-08T05:11:00,0,0,7.5,94
313,2023-05-08T05:12:00,0,0,7.5,94
314,2023-05-08T05:13:00,0,0,7.5,94
315,2023-05-08T05:14:00,0,0,7.5,94
316,2023-05-08T05:15:00,0,0,7.5,94
317,2023-05-08T05:16:00,0,0,7.5,94
318,2023-05-08T05:17:00,0,0,7.5,94
319,2023-05-08T05:18:00,0,0,7.5,94
320,2023-05-08T05:19:00,0,0,7.5,94
321,2023-05-08T05:20:00,0,0,7.5,94
322,2023-05-08T05:21:00,0,0,7.5,94
323,2023-05-08T05:22:00,0,0,7.5,94
324,2023-05-08T05:23:00,0,0,7.5,94
325,2023-05-08T05:24:00,0,0,7.5,94
326,2023-05-08T05:25:00,0,0,7.5,94
327,2023-05-08T05:26:00,0,0,7.5,94
328,2023-05-08T05:27:00,0,0,7.5,94
329,2023-05-08T05:28:00,0,0,7.5,94
330,2023-05-08T05:29:00,0,0,7.5,94
331,2023-05-08T05:30:00,0,0,7.5,94
332,2023-05-08T05:31:00,0,0,7.5,94
333,2023-05-08T05:32:00,0,0,7.5,94
334,2023-05-08T05:33:00,0,0,7.5,94
335,2023-05-08T05:34:00,0,0,7.5,94
336,2023-05-08T05:35:00,0,0,7.5,94
337,2023-05-08T05:36:00,0,0,7.5,94
338,2023-05-08T05:37:00,0,0,7.5,94
339,2023-05-08T05:38:00,0,0,7.5,94
340,2023-05-08T05:39:00,0,0,7.5,94
341,2023-05-08T05:40:00,0,0,7.5,94
342,2023-05-08T05:41:00,0,0,7.5,94
343,2023-05-08T05:42:00,0,0,7.5,94
344,2023-05-08T05:43:00,0,0,7.5,94
345,2023-05-08T05:44:00,0,0,7.5,94
346,2023-05-08T05:45:00,0,0,7.5,94
347,2023-05-08T05:46:00,0,0,7.5,94
348,2023-05-08T05:47:00,0,0,7.5,94
349,2023-05-08T05:48:00,0,0,7.5,94
350,2023-05-08T05:49:00,0,0,7.5,94
351,2023-05-08T05:50:00,0,0,7.5,94
352,2023-05-08T05:51:00,0,0,7.5,94
353,2023-05-08T05:52:00,0,0,7.5,94
354,2023-05-08T05:53:00,0,0,7.5,94
355,2023-05-08T05:54:00,0,0,7.5,94
356,2023-05-08T05:55:00,0,0,7.5,94
357,2023-05-08T05:56:00,0,0,7.5,94
358,2023-05-08T05:57:00,0,0,7.5,94
359,2023-05-08T05:58:00,0,0,7.5,94
360,2023-05-08T05:59:00,0,0,7.5,94
361,2023-05-08T06:00:00,0,0,7.5,94
362,2023-05-08T06:01:00,0,0,7.5,94
363,2023-05-08T06:02:00,0,0,7.5,94
364,2023-05-08T06:03:00,0,0,7.5,94
365,2023-05-08T06:04:00,0,0,7.5,94
366,2023-05-08T06:05:00,0,0,7.5,94
367,2023-05-08T06:06:00,0,0,7.5,94
368,2023-05-08T06:07:00,0,0,7.5,94
369,2023-05-08T06:08:00,0,0,7.5,94
370,2023-05-08T06:09:00,0,0,7.5,94
371,2023-05-08T06:10:00,0,0,7.5,94
372,2023-05-08T06:11:00,0,0,7.5,94
373,2023-05-08T06:12:00,0,0,7.5,94
374,2023-05-08T06:13:00,0,0,7.5,94
375,2023-05-08T06:14:00,0,0,7.5,94
376,2023-05-08T06:15:00,0,0,7.5,94
377,2023-05-08T06:16:00,0,0,7.5,94
378,2023-05-08T06:17:00,0,0,7.5,94
379,2023-05-08T06:18:00,0,0,7.5,94
380,2023-05-08T06:19:00,0,0,7.5,94
381,2023-05-08T06:20:00,0,0,7.5,94
382,2023-05-08T06:21:00,0,0,7.5,94
383,2023-05-08T06:22:00,0,0,7.5,94
384,2023-05-08T06:23:00,0,0,7.5,94
385,2023-05-08T06:24:00,0,0,7.5,94
386,2023-05-08T06:25:00,0,0,7.5,94
387,2023-05-08T06:26:00,0,0,7.5,94
388,2023-05-08T06:27:00,0,0,7.5,94
389,2023-05-08T06:28:00,0,0,7.5,94
390,2023-05-08T06:29:00,0,0,7.5,94
391,2023-05-08T06:30:00,0,0,7.5,94
392,2023-05-08T06:31:00,0,0,7.5,94
393,2023-05-08T06:32:00,0,0,7.5,94
394,2023-05-08T06:33:00,0,0,7.5,94
395,2023-05-08T06:34:00,0,0,7.5,94
396,2023-05-08T06:35:00,0,0,7.5,94
397,2023-05-08T06:36:00,0,0,7.5,94
398,2023-05-08T06:37:00,0,0,7.5,94
399,2023-05-08T06:38:00,0,0,7.5,94
400,2023-05-08T06:39:00,0,0,7.5,94
401,2023-05-08T06:40:00,0,0,7.5,94
402,2023-05-08T06:41:00,0,0,7.5,94
403,2023-05-08T06:42:00,0,0,7.5,94
404,2023-05-08T06:43:00,0,0,7.5,94
405,2023-05-08T06:44:00,0,0,7.5,94
406,2023-05-08T06:45:00,0,0,7.5,94
407,2023-05-08T06:46:00,0,0,7.5,94
408,2023-05-08T06:47:00,0,0,7.5,94
409,2023-05-08T06:48:00,0,0,7.5,94
410,2023-05-08T06:49:00,0,0,7.5,94
411,2023-05-08T06:50:00,0,0,7.5,94
412,2023-05-08T06:51:00,0,0,7.5,94
413,2023-05-08T06:52:00,0,0,7.5,94
414,2023-05-08T06:53:00,0,0,7.5,94
415,2023-05-08T06:54:00,0,0,7.5,94
416,2023-05-08T06:55:00,0,0,7.5,94
417,2023-05-08T06:56:00,0,0,7.5,94
418,2023-05-08T06:57:00,0,0,7.5,94
419,2023-05-08T06:58:00,0,0,7.5,94
420,2023-05-08T06:59:00,0,0,7.5,94
421,2023-05-08T07:00:00,0,0,7.5,94
422,2023-05-08T07:01:00,0,0,7.5,94
423,2023-05-08T07:02:00,0,0,7.5,94
424,2023-05-08T07:03:00,0,0,7.5,94
425,2023-05-08T07:04:00,0,0,7.5,94
426,2023-05-08T07:05:00,0,0,7.5,94
427,2023-05-08T07:06:00,0,0,7.5,94
428,2023-05-08T07:07:00,0,0,7.5,94
429,2023-05-08T07:08:00,0,0,7.5,94
430,2023-05-08T07:09:00,0,0,7.5,94
431,2023-05-08T07:10:00,0,0,7.5,94
432,2023-05-08T07:11:00,0,0,7.5,94
433,2023-05-08T07:12:00,0,0,7.5,94
434,2023-05-08T07:13:00,0,0,7.5,94
435,2023-05-08T07:14:00,0,0,7.5,94
436,2023-05-08T07:15:00,0,0,7.5,94
437,2023-05-08T07:16:00,0,0,7.5,94
438,2023-05-08T07:17:00,0,0,7.5,94
439,2023-05-08T07:18:00,0,0,7.5,94
440,2023-05-08T07:19:00,0,0,7.5,94
441,2023-05-08T07:20:00,0,0,7.5,94
442,2023-05-08T07:21:00,0,0,7.5,94
443,2023-05-08T07:22:00,0,0,7.5,94
444,2023-05-08T07:23:00,0,0,7.5,94
445,2023-05-08T07:24:00,0,0,7.5,94
446,2023-05-08T07:25:00,0,0,7.5,94
447,2023-05-08T07:26:00,0,0,7.5,94
448,2023-05-08T07:27:00,0,0,7.5,94
449,2023-05-08T07:28:00,0,0,7.5,94
450,2023-05-08T07:29:00,0,0,7.5,94
451,2023-05-08T07:30:00,0,0,7.5,94
452,2023-05-08T07:31:00,0,0,7.5,94
453,2023-05-08T07:32:00,0,0,7.5,94
454,2023-05-08T07:33:00,0,0,7.5,94
455,2023-05-08T07:34:00,0,0,7.5,94
456,2023-05-08T07:35:00,0,0,7.5,94
457,2023-05-08T07:36:00,0,0,7.5,94
458,2023-05-08T07:37:00,0,0,7.5,94
459,2023-05-08T07:38:00,0,0,7.5,94
460,2023-05-08T07:39:00,0,0,7.5,94
461,2023-05-08T07:40:00,0,0,7.5,94
462,2023-05-08T07:41:00,0,0,7.5,94
463,2023-05-08T07:42:00,0,0,7.5,94
464,2023-05-08T07:43:00,0,0,7.5,94
465,2023-05-08T07:44:00,0,0,7.5,94
466,2023-05-08T07:45:00,0,0,7.5,94
467,2023-05-08T07:46:00,0,0,7.5,94
468,2023-05-08T07:47:00,0,0,7.5,94
469,2023-05-08T07:48:00,0,0,7.5,94
470,2023-05-08T07:49:00,0,0,7.5,94
471,2023-05-08T07:50:00,0,0,7.5,94
472,2023-05-08T07:51:00,0,0,7.5,94
473,2023-05-08T07:52:00,0,0,7.5,94
474,2023-05-08T07:53:00,0,0,7.5,94
475,2023-05-08T07:54:00,0,0,7.5,94
476,2023-05-08T07:55:00,0,0,7.5,94
477,2023-05-08T07:56:00,0,0,7.5,94
478,2023-05-08T07:57:00,0,0,7.5,94
479,2023-05-08T07:58:00,0,0,7.5,94
480,2023-05-08T07:59:00,0,0,7.5,94
481,2023-05-08T08:00:00,0,0,7.5,94
482,2023-05-08T08:01:00,0,0,7.5,94
483,2023-05-08T08:02:00,0,0,7.5,94
484,2023-05-08T08:03:00,0,0,7.5,94
485,2023-05-08T08:04:00,0,0,7.5,94
486,2023-05-08T08:05:00,0,0,7.5,94
487,2023-05-08T08:06:00,0,0,7.5,94
488,2023-05-08T08:07:00,0,0,7.5,94
489,2023-05-08T08:08:00,0,0,7.5,94
490,2023-05-08T08:09:00,0,0,7.5,94
491,2023-05-08T08:10:00,0,0,7.5,94
492,2023-05-08T08:11:00,0,0,7.5,94
493,2023-05-08T08:12:00,0,0,7.5,94
494,2023-05-08T08:13:00,0,0,7.5,94
495,2023-05-08T08:14:00,0,0,7.5,94
496,2023-05-08T08:15:00,0,0,7.5,94
497,2023-05-08T08:16:00,0,0,7.5,94
498,2023-05-08T08:17:00,0,0,7.5,94
499,2023-05-08T08:18:00,0,0,7.5,94
500,2023-05-08T08:19:00,0,0,7.5,94
501,2023-05-08T08:20:00,0,0,7.5,94
502,2023-05-08T08:21:00,0,0,7.5,94
503,2023-05-08T08:22:00,0,0,7.5,94
504,2023-05-08T08:23:00,0,0,7.5,94
505,2023-05-08T08:24:00,0,0,7.5,94
506,2023-05-08T08:25:00,0,0,7.5,94
507,2023-05-08T08:26:00,0,0,7.5,94
508,2023-05-08T08:27:00,0,0,7.5,94
509,2023-05-08T08:28:00,0,0,7.5,94
510,2023-05-08T08:29:00,0,0,7.5,94
511,2023-05-08T08:30:00,0,0,7.5,94
512,2023-05-08T08:31:00,0,0,7.5,94
513,2023-05-08T08:32:00,0,0,7.5,94
514,2023-05-08T08:33:00,0,0,7.5,94
515,2023-05-08T08:34:00,0,0,7.5,94
516,2023-05-08T08:35:00,0,0,7.5,94
517,2023-05-08T08:36:00,0,0,7.5,94
518,2023-05-08T08:37:00,0,0,7.5,94
519,2023-05-08T08:38:00,0,0,7.5,94
520,2023-05-08T08:39:00,0,0,7.5,94
521,2023-05-08T08:40:00,0,0,7.5,94
522,2023-05-08T08:41:00,0,0,7.5,94
523,2023-05-08T08:42:00,0,0,7.5,94
524,2023-05-08T08:43:00,0,0,7.5,94
525,2023-05-08T08:44:00,0,0,7.5,94
526,2023-05-08T08:45:00,0,0,7.5,94
527,2023-05-08T08:46:00,0,0,7.5,94
528,2023-05-08T08:47:00,0,0,7.5,94
529,2023-05-08T08:48:00,0,0,7.5,94
530,2023-05-08T08:49:00,0,0,7.5,94
531,2023-05-08T08:50:00,0,0,7.5,94
532,2023-05-08T08:51:00,0,0,7.5,94
533,2023-05-08T08:52:00,0,0,7.5,94
534,2023-05-08T08:53:00,0,0,7.5,94
535,2023-05-08T08:54:00,0,0,7.5,94
536,2023-05-08T08:55:00,0,0,7.5,94
537,2023-05-08T08:56:00,0,0,7.5,94
538,2023-05-08T08:57:00,0,0,7.5,94
539,2023-05-08T08:58:00,0,0,7.5,94
540,2023-05-08T08:59:00,0,0,7.5,94
541,2023-05-08T09:00:00,0,0,7.5,94
542,2023-05-08T09:01:00,0,0,7.5,94
543,2023-05-08T09:02:00,0,0,7.5,94
544,2023-05-08T09:03:00,0,0,7.5,94
545,2023-05-08T09:04:00,0,0,7.5,94
546,2023-05-08T09:05:00,0,0,7.5,94
547,2023-05-08T09:06:00,0,0,7.5,94
548,2023-05-08T09:07:00,0,0,7.5,94
549,2023-05-08T09:08:00,0,0,7.5,94
550,2023-05-08T09:09:00,0,0,7.5,94
551,2023-05-08T09:10:00,0,0,7.5,94
552,2023-05-08T09:11:00,0,0,7.5,94
553,2023-05-08T09:12:00,0,0,7.5,94
554,2023-05-08T09:13:00,0,0,7.5,94
555,2023-05-08T09:14:00,0,0,7.5,94
556,2023-05-08T09:15:00,0,0,7.5,94
557,2023-05-08T09:16:00,0,0,7.5,94
558,2023-05-08T09:17:00,0,0,7.5,94
559,2023-05-08T09:18:00,0,0,7.5,94
560,2023-05-08T09:19:00,0,0,7.5,94
561,2023-05-08T09:20:00,0,0,7.5,94
562,2023-05-08T09:21:00,0,0,7.5,94
563,2023-05-08T09:22:00,0,0,7.5,94
564,2023-05-08T09:23:00,0,0,7.5,94
565,2023-05-08T09:24:00,0,0,7.5,94
566,2023-05-08T09:25:00,0,0,7.5,94
567,2023-05-08T09:26:00,0,0,7.5,94
568,2023-05-08T09:27:00,0,0,7.5,94
569,2023-05-08T09:28:00,0,0,7.5,94
570,2023-05-08T09:29:00,0,0,7.5,94
571,2023-05-08T09:30:00,0,0,7.5,94
572,2023-05-08T09:31:00,0,0,7.5,94
573,2023-05-08T09:32:00,0,0,7.5,94
574,2023-05-08T09:33:00,0,0,7.5,94
575,2023-05-08T09:34:00,0,0,7.5,94
576,2023-05-08T09:35:00,0,0,7.5,94
577,2023-05-08T09:36:00,0,0,7.5,94
578,2023-05-08T09:37:00,0,0,7.5,94
579,2023-05-08T09:38:00,0,0,7.5,94
580,2023-05-08T09:39:00,0,0,7.5,94
581,2023-05-08T09:40:00,0,0,7.5,94
582,2023-05-08T09:41:00,0,0,7.5,94
583,2023-05-08T09:42:00,0,0,7.5,94
584,2023-05-08T09:43:00,0,0,7.5,94
585,2023-05-08T09:44:00,0,0,7.5,94
586,2023-05-08T09:45:00,0,0,7.5,94
587,2023-05-08T09:46:00,0,0,7.5,94
588,2023-05-08T09:47:00,0,0,7.5,94
589,2023-05-08T09:48:00,0,0,7.5,94
590,2023-05-08T09:49:00,0,0,7.5,94
591,2023-05-08T09:50:00,0,0,7.5,94
592,2023-05-08T09:51:00,0,0,7.5,94
593,2023-05-08T09:52:00,0,0,7.5,94
594,2023-05-08T09:53:00,0,0,7.5,94
595,2023-05-08T09:54:00,0,0,7.5,94
596,2023-05-08T09:55:00,0,0,7.5,94
597,2023-05-08T09:56:00,0,0,7.5,94
598,2023-05-08T09:57:00,0,0,7.5,94
599,2023-05-08T09:58:00,0,0,7.5,94
600,2023-05-08T09:59:00,0,0,7.5,94
601,2023-05-08T10:00:00,0,0,7.5,94
602,2023-05-08T10:01:00,0,0,7.5,94
603,2023-05-08T10:02:00,0,0,7.5,94
604,2023-05-08T10:03:00,0,0,7.5,94
605,2023-05-08T10:04:00,0,0,7.5,94
606,2023-05-08T10:05:00,0,0,7.5,94
607,2023-05-08T10:06:00,0,0,7.5,94
608,2023-05-08T10:07:00,0,0,7.5,94
609,2023-05-08T10:08:00,0,0,7.5,94
610,2023-05-08T10:09:00,0,0,7.5,94
611,2023-05-08T10:10:00,0,0,7.5,94
612,2023-05-08T10:11:00,0,0,7.5,94
613,2023-05-08T10:12:00,0,0,7.5,94
614,2023-05-08T10:13:00,0,0,7.5,94
615,2023-05-08T10:14:00,0,0,7.5,94
616,2023-05-08T10:15:00,0,0,7.5,94
617,2023-05-08T10:16:00,0,0,7.5,94
618,2023-05-08T10:17:00,0,0,7.5,94
619,2023-05-08T10:18:00,0,0,7.5,94
620,2023-05-08T10:19:00,0,0,7.5,94
621,2023-05-08T10:20:00,0,0,7.5,94
622,2023-05-08T10:21:00,0,0,7.5,94
623,2023-05-08T10:22:00,0,0,7.5,94
624,2023-05-08T10:23:00,0,0,7.5,94
625,2023-05-08T10:24:00,0,0,7.5,94
626,2023-05-08T10:25:00,0,0,7.5,94
627,2023-05-08T10:26:00,0,0,7.5,94
628,2023-05-08T10:27:00,0,0,7.5,94
629,2023-05-08T10:28:00,0,0,7.5,94
630,2023-05-08T10:29:00,0,0,7.5,94
631,2023-05-08T10:30:00,0,0,7.5,94
632,2023-05-08T10:31:00,0,0,7.5,94
633,2023-05-08T10:32:00,0,0,7.5,94
634,2023-05-08T10:33:00,0,0,7.5,94
635,2023-05-08T10:34:00,0,0,7.5,94
636,2023-05-08T10:35:00,0,0,7.5,94
637,2023-05-08T10:36:00,0,0,7.5,94
638,2023-05-08T10:37:00,0,0,7.5,94
639,2023-05-08T10:38:00,0,0,7.5,94
640,2023-05-08T10:39:00,0,0,7.5,94
641,2023-05-08T10:40:00,0,0,7.5,94
642,2023-05-08T10:41:00,0,0,7.5,94
643,2023-05-08T10:42:00,0,0,7.5,94
644,2023-05-08T10:43:00,0,0,7.5,94
645,2023-05-08T10:44:00,0,0,7.5,94
646,2023-05-08T10:45:00,0,0,7.5,94
647,2023-05-08T10:46:00,0,0,7.5,94
648,2023-05-08T10:47:00,0,0,7.5,94
649,2023-05-08T10:48:00,0,0,7.5,94
650,2023-05-08T10:49:00,0,0,7.5,94
651,2023-05-08T10:50:00,0,0,7.5,94
652,2023-05-08T10:51:00,0,0,7.5,94
653,2023-05-08T10:52:00,0,0,7.5,94
654,2023-05-08T10:53:00,0,0,7.5,94
655,2023-05-08T10:54:00,0,0,7.5,94
656,2023-05-08T10:55:00,0,0,7.5,94
657,2023-05-08T10:56:00,0,0,7.5,94
658,2023-05-08T10:57:00,0,0,7.5,94
659,2023-05-08T10:58:00,0,0,7.5,94
660,2023-05-08T10:59:00,0,0,7.5,94
661,2023-05-08T11:00:00,0,0,7.5,94
662,2023-05-08T11:01:00,0,0,7.5,94
663,2023-05-08T11:02:00,0,0,7.5,94
664,2023-05-08T11:03:00,0,0,7.5,94
665,2023-05-08T11:04:00,0,0,7.5,94
666,2023-05-08T11:05:00,0,0,7.5,94
667,2023-05-08T11:06:00,0,0,7.5,94
668,2023-05-08T11:07:00,0,0,7.5,94
669,2023-05-08T11:08:00,0,0,7.5,94
670,2023-05-08T11:09:00,0,0,7.5,94
671,2023-05-08T11:10:00,0,0,7.5,94
672,2023-05-08T11:11:00,0,0,7.5,94